Hourly Data Report for August 12, 2004

All times are specified in Local Standard Time (LST). Add 1 hour to adjust for Daylight Saving Time where and when it is observed.

TORONTO CITY
ONTARIO

43°40'00.000" N
79°24'00.000" W
112.50 m
6158355
71508
XTO

Download Data

Hourly Data (August 2004)
Hourly Data Report for August 12, 2004
TIME Temp Definition
°C
Dew Point Definition
°C
Rel Hum Definition
%
Wind Dir Definition
10's deg

Wind Spd Definition
km/h
Visibility Definition
km
Stn Press Definition
kPa
Hmdx Definition


Wind Chill Definition


Weather Definition


00:00 16.7 13.1 79 LegendMM LegendMM LegendMM 99.87     LegendNANA
01:00 16.2 12.8 80 LegendMM LegendMM LegendMM 99.86     LegendNANA
02:00 16.1 13.0 82 LegendMM LegendMM LegendMM 99.86     LegendNANA
03:00 15.8 12.7 82 LegendMM LegendMM LegendMM 99.89     LegendNANA
04:00 15.6 13.0 85 LegendMM LegendMM LegendMM 99.91     LegendNANA
05:00 15.3 12.3 82 LegendMM LegendMM LegendMM 99.96     LegendNANA
06:00 15.2 12.2 82 LegendMM LegendMM LegendMM 100.00     LegendNANA
07:00 16.0 12.9 82 LegendMM LegendMM LegendMM 100.06     LegendNANA
08:00 17.0 12.7 76 LegendMM LegendMM LegendMM 100.10     LegendNANA
09:00 18.0 12.8 72 LegendMM LegendMM LegendMM 100.14     LegendNANA
10:00 19.2 12.3 64 LegendMM LegendMM LegendMM 100.16     LegendNANA
11:00 20.1 11.8 59 LegendMM LegendMM LegendMM 100.15     LegendNANA
12:00 20.7 11.7 56 LegendMM LegendMM LegendMM 100.13     LegendNANA
13:00 20.5 12.8 61 LegendMM LegendMM LegendMM 100.16     LegendNANA
14:00 21.2 13.0 59 LegendMM LegendMM LegendMM 100.15     LegendNANA
15:00 21.0 12.2 57 LegendMM LegendMM LegendMM 100.11     LegendNANA
16:00 20.7 12.6 60 LegendMM LegendMM LegendMM 100.12     LegendNANA
17:00 20.4 12.4 60 LegendMM LegendMM LegendMM 100.12     LegendNANA
18:00 20.3 12.3 60 LegendMM LegendMM LegendMM 100.12     LegendNANA
19:00 19.8 12.5 63 LegendMM LegendMM LegendMM 100.17     LegendNANA
20:00 19.0 13.0 68 LegendMM LegendMM LegendMM 100.21     LegendNANA
21:00 18.5 12.6 68 LegendMM LegendMM LegendMM 100.26     LegendNANA
22:00 17.8 12.3 70 LegendMM LegendMM LegendMM 100.22     LegendNANA
23:00 17.8 12.3 70 LegendMM LegendMM LegendMM 100.22     LegendNANA

Notes on Data Quality.

Legend

  • E = Estimated
  • M = Missing
  • NA = Not Available
Date modified: